STARLINK-11281 [DTC] (60996 NORAD) Tracking and Keplerian Element Data

This shows tracking and keplerian element data for the satellite.

Feedback or suggestion? Click here.




ElementValue
Catalog60996
NameSTARLINK-11281 [DTC]
Epoch Orbit609
Epoch Day286.91668981
Epoch Year2024
RAAN289.2372
Inclination53.1581
Eccentricity0.0001348
Argument of Perigee101.7532
Mean Anonmoly315.1326
Mean Motion15.69745081
Decay Rate-0.0004165
L11 60996U 24158G 24286.91668981 -.00041650 00000+0 -34013-3 0 9991
L22 60996 53.1581 289.2372 0001348 101.7532 315.1326 15.69745081 6095



Live tracking and technical data element details for STARLINK-11281 [DTC] (NORAD 60996). STARLINK-11281 [DTC] can be tracked NOW for your location showing map with azimuth and elevation plus other details from your city location.







IsCatalogInMostPopularTable: catalog: 60996, numindb: 9
Update: records affected: 1



GetName: 60996 STARLINK-11281 [DTC]

Hit Count: updated at: Wed, 04 Dec 2024 17:49:15 GMT